Weather History for MDST - December, 2012

Change the Weather History Date:

Wednesday, December 12, 2012

  Actual Average Record
Temperature  
Mean Temperature 74 °F -  
Max Temperature 82 °F 84 °F 89 °F (1997)
Min Temperature 66 °F 66 °F 62 °F (2014)
Cooling Degree Days 9    
Growing Degree Days 24 (Base 50)    
Moisture  
Dew Point 71 °F    
Average Humidity 91    
Maximum Humidity 100    
Minimum Humidity 66    
Precipitation  
Precipitation 0.00 in 0.09 in - ()
Sea Level Pressure  
Sea Level Pressure 30.03 in    
Wind  
Wind Speed 3 mph ()    
Max Wind Speed 9 mph    
Max Gust Speed -    
Visibility 6.0 miles    
Events Rain    
Averages and records for this station are not official NWS values.
T = Trace of Precipitation, MM = Missing Value Source: Averaged Metar Reports

Daily Weather History Graph

Daily Weather History Graph

Search for Another Location

Airport or City:

Trip Planner

Search our weather history database for the weather conditions in past years. The results will help you decide how hot, cold, wet, or windy it might be!

Date:

Astronomy

Dec. 12, 2012 Rise Set
Actual Time 7:07 AM AST 6:05 PM AST
Civil Twilight 6:43 AM AST 6:29 PM AST
Nautical Twilight 6:15 AM AST 6:57 PM AST
Astronomical Twilight 5:48 AM AST 7:24 PM AST
Moon 6:10 AM AST (12/12) 5:37 PM AST (12/12)
Length of Visible Light 11h 46m
Length of Day
10h 58m
Waning Crescent, 1% of the Moon is Illuminated
Dec 12
Waning Crescent
Dec 13
New
Dec 20
First Quarter
Dec 28
Full
Jan 4
Last Quarter

Hourly Weather History & Observations

Time (AST) Temp. Heat Index Dew Point Humidity Pressure Visibility Wind Dir Wind Speed Gust Speed Precip Events Conditions
12:00 AM 71.6 °F - 71.6 °F 100% 30.04 in 5.0 mi ESE 5.8 mph - N/A Rain Light Rain
1:00 AM 71.6 °F - 71.6 °F 100% 30.04 in 5.0 mi ESE 5.8 mph - N/A Rain Light Rain
2:00 AM 69.8 °F - 69.8 °F 100% 30.04 in 6.2 mi Calm Calm - N/A   Mostly Cloudy
3:00 AM 69.8 °F - 69.8 °F 100% 30.01 in 6.2 mi Calm Calm - N/A   Mostly Cloudy
4:00 AM 69.8 °F - 69.8 °F 100% 30.01 in 6.2 mi East 4.6 mph - N/A   Mostly Cloudy
5:00 AM 69.8 °F - 69.8 °F 100% 30.01 in 6.2 mi Calm Calm - N/A   Scattered Clouds
6:00 AM 69.8 °F - 69.8 °F 100% 30.04 in 6.2 mi Calm Calm - N/A   Mostly Cloudy
7:00 AM 68.0 °F - 68.0 °F 100% 30.04 in 6.2 mi Calm Calm - N/A   Scattered Clouds
8:00 AM 66.2 °F - 66.2 °F 100% 30.06 in 6.2 mi Calm Calm - N/A   Scattered Clouds
9:00 AM 71.6 °F - 69.8 °F 94% 30.09 in 6.2 mi Calm Calm - N/A   Mostly Cloudy
10:00 AM 75.2 °F - 73.4 °F 94% 30.09 in 6.2 mi Variable 3.5 mph - N/A   Scattered Clouds
11:00 AM 78.8 °F - 71.6 °F 78% 30.09 in 4.3 mi SE 6.9 mph - N/A   Scattered Clouds
12:00 PM 77.0 °F - 71.6 °F 83% 30.06 in 6.2 mi SE 8.1 mph - N/A   Scattered Clouds
1:00 PM 77.0 °F - 75.2 °F 94% 30.04 in 6.2 mi SSE 6.9 mph - N/A   Scattered Clouds
2:00 PM 79 °F - 72 °F 74% 30.03 in 6 mi ESE 6.7 mph - -   Haze
2:00 PM 78.8 °F - 71.6 °F 78% 30.01 in 6.2 mi ESE 6.9 mph - N/A   Scattered Clouds
3:00 PM 82.4 °F 86.3 °F 69.8 °F 66% 30.01 in - ESE 9.2 mph - N/A   Scattered Clouds
4:00 PM 78.8 °F - 71.6 °F 78% 29.98 in 6.2 mi East 8.1 mph - N/A   Scattered Clouds
5:00 PM 78.8 °F - 71.6 °F 78% 29.98 in 6.2 mi East 4.6 mph - N/A   Scattered Clouds
6:00 PM 78.8 °F - 71.6 °F 78% 29.98 in 6.2 mi East 6.9 mph - N/A   Scattered Clouds
7:00 PM 75.2 °F - 71.6 °F 89% 30.01 in 6.2 mi East 6.9 mph - N/A   Partly Cloudy
8:00 PM 73.4 °F - 69.8 °F 88% 30.01 in 6.2 mi ESE 4.6 mph - N/A   Partly Cloudy
9:00 PM 71.6 °F - 71.6 °F 100% 30.04 in 6.2 mi Variable 3.5 mph - N/A   Partly Cloudy
10:00 PM 71.6 °F - 71.6 °F 100% 30.04 in 6.2 mi Variable 3.5 mph - N/A   Partly Cloudy
11:00 PM 71.6 °F - 71.6 °F 100% 30.06 in 6.2 mi Calm Calm - N/A   Partly Cloudy